SCP
0 0 0 0 0 0 0 0 0 0 0 0 0 0 0 0 0 0 0 0 0 0 0 0 0 0 0 0 0 0 0 0 0 0 0 0 0 0
0 0 0 0 0 0 0 0 0 0 0 0 0 0 0 0 0 0 0 0 0 0 0 0 0 0 0 0 0 0 0 0 0 0 0 0 0 0
0 0 0 0 0 0 0 0 0 0 0 0 0 0 0 0 0 0 0 0 0 0 0 0 0 0 0 0 0 0 0 0 0 0 0 0 0 0
0 0 0 0 0 0 0 0 0 0 0 0 0 0 0 0 0 0 0 0 0 0 0 0 0 0 0 0 0 0 0 0 0 0 0 0 0 0
0 0 0 0 0 0 0 0 0 0 0 0 0 0 0 0 0 0 0 0 0 0 0 0 0 0 0 0 0 0 0 0 0 0 0 0 0 0
0 0 0 0 0 0 0 0 0 0 0 0 0 0 0 0 0 0 0 0 0 0 0 0 0 0 0 0 0 0 0 0 0 0 0 0 0 0
0 0 0 0 0 0 0 0 0 0 0 0 0 0 0 0 0 0 0 0 0 0 -0 0 0 0 0 0 0 0 0 0 0 0 0 0 0 0
0 0 0 0 0 0 0 0 0 0 0 0 0 0 0 0 0 0 0 0 0 0 0 0 0 0 0 0 0 0 0 0 0 0 0 0 0 0
0 0 0 0 0 0 0 0 0 0 0 0 0 0 0 0 0 0 0 0 0 0 0 0 0 0 0 0 0 0 0 0 0 0 0 0 0 0
0 0 0 0 0 0 0 0 0 0 0 0 0 0 0 0 0 0 0 0 0 0 0 0 0 0 0 0 0 0 0 0 0 0 0 0 0 0
0 0 0 0 0 0 0 0 0 0 0 0 0 0 0 0 0 0 0 0 0 0 0 0 0 0 0 0 0 0 0 0 0 0 0 0 0 0
0 0 0 0 0 0 0 0 0 0 0 0 0 0 0 0 0 0 0 0 0 0 0 0 0 0 0 0 0 0 0 0 0 0 0 0 0 0
0 0 0 0 0 0 0 0 0 0 0 0 0 0 0 0 0 0 0 0 0 0 0 0 0 0 0 0 0 0 0 0 0 0 0 0 0 0
0 -0 -0 0 0 0 0 0 0 0 0 0 0 0 0 0 0 0 0 0 0 0 0 0 0 0 0 0 0 0 0 0 0 0 0 0 0 0
0 -0 -0 -0 0 0 0 0 0 0 0 0 0 0 0 0 0 0 0 0 0 0 0 0 0 0 0 0 0 0 0 0 0 0 0 0 0 -0
0 0 0 0 -0 0 0 0 0 0 0 0 0 0 0 0 0 0 0 0 0 0 0 0 0 0 0 0 0 0 0 0 0 0 0 0 0 0
0 0 0 0 0 0 0 0 0 -0 0 0 0 0 -0 -0 -0 0 0 0 0 0 0 0 0 0 0 0 0 0 0 0 0 0 0 0 0 0
0 0 0 0 0 0 0 0 0 0 0 0 0 0 0 0 0 0 0 0 0 0 0 0 0 0 0 0 0 0 0 0 0 0 0 0 0 0
0 0 0 0 0 0 0 0 0 0 0 0 0 0 0 0 0 0 0 0 0 0 -0 -0 0 0 0 0 0 0 0 0 0 0 0 0 0 0
0 0 0 0 0 0 0 0 0 0 0 0 0 0 0 0 0 -0 -0 -0 -0 -0 -0 0 0 0 -0 0 0 0 0 0 0 0 0 0 0 0
0 0 0 0 0 0 0 0 0 0 0 0 0 0 0 0 0 0 0 -0 -0 -0 -0 0 0 -0 -0 0 0 0 0 0 0 0 0 0 0 0
0 0 0 0 0 0 0 0 0 0 0 0 0 0 0 0 0 0 0 0 0 -0 0 0 -0 -0 0 0 -0 0 0 0 0 0 -0 0 0 0
0 0 0 -0 0 0 0 -0 0 0 0 0 0 0 0 0 0 0 0 0 0 0 -0 -0 -0 -0 0 0 -0 0 -0 0 0 0 0 0 0 0
Wind_Speed_500mb
21 14 11 10 13 17 20 22 23 13 24 23 19 7 4 5 6 10 16 19 25 28 30 29 28 33 41 49 51 54 68 82 66 67 69 68 63 63
11 6 8 11 14 18 20 21 25 28 22 25 27 32 35 36 31 23 22 27 32 35 36 36 32 34 34 37 40 41 48 62 79 88 85 82 69 66
8 7 7 10 16 17 21 27 33 32 32 30 29 36 46 48 48 44 43 37 36 39 38 41 43 41 39 36 37 38 39 44 56 66 88 84 78 74
5 8 11 14 21 27 34 36 32 33 33 34 36 43 48 53 60 54 43 37 49 47 43 41 44 48 42 37 38 36 32 37 42 52 67 96 85 84
12 16 19 23 26 27 29 31 32 33 37 40 41 39 41 39 37 39 43 44 33 22 26 30 30 29 55 43 42 39 38 38 39 45 53 59 82 101
15 19 24 28 30 30 28 23 28 35 39 38 31 36 35 33 38 41 41 41 49 57 43 31 39 34 32 39 45 45 40 36 37 39 46 50 55 77
24 24 26 30 30 28 23 24 24 28 25 28 31 35 35 36 36 32 35 35 35 41 52 51 50 54 50 46 43 44 42 36 33 32 40 46 59 63
25 26 27 27 19 18 26 22 21 23 25 28 28 34 37 38 36 33 35 42 48 32 36 37 38 51 54 54 47 45 40 38 36 37 35 43 50 58
21 22 19 18 18 20 22 21 22 25 26 29 30 26 30 36 38 41 46 49 42 36 39 36 27 37 40 51 44 43 40 39 37 36 39 34 45 53
14 10 15 20 19 12 16 20 25 28 28 26 28 32 38 41 40 35 38 34 36 29 27 33 29 24 18 29 43 47 47 45 40 37 37 36 34 44
14 13 10 11 17 19 25 27 26 22 24 22 28 33 31 29 31 29 28 31 31 31 28 24 34 32 26 23 29 33 35 38 39 36 37 40 40 41
25 29 30 24 17 16 21 25 28 30 33 34 38 39 31 23 23 34 24 22 29 30 25 34 41 34 23 29 33 30 35 39 41 42 42 44 45 49
34 46 45 32 24 18 21 23 27 32 36 36 36 35 29 28 27 29 31 33 39 43 38 37 43 40 34 37 38 38 28 36 41 39 39 39 41 44
29 40 39 29 25 23 22 25 30 32 36 37 34 26 29 34 31 31 34 33 32 36 37 41 51 45 43 36 35 31 35 36 34 35 40 38 37 46
26 34 40 29 28 29 28 36 37 47 46 38 36 37 43 46 48 43 40 37 41 45 48 49 51 49 42 39 44 34 29 29 30 22 21 20 25 30
22 28 30 39 36 35 36 40 47 53 49 37 34 42 49 49 46 40 37 34 40 36 27 34 41 43 37 33 33 31 29 20 15 16 18 18 28 29
27 27 29 36 43 49 45 47 53 62 54 44 40 50 47 44 51 47 40 37 35 35 28 18 28 30 31 27 31 32 31 24 17 10 17 19 13 21
25 27 28 30 36 45 48 51 54 66 54 47 49 45 48 51 55 50 39 29 27 17 14 7 10 24 21 17 12 15 17 15 7 7 11 5 3 10
24 24 25 27 31 40 44 47 57 64 51 52 46 44 49 54 58 48 41 25 15 13 8 11 10 18 38 27 20 9 7 10 12 23 15 2 0 7
27 25 23 23 30 40 45 50 57 57 49 45 47 48 48 53 54 44 37 33 25 19 13 22 32 32 30 31 27 15 10 7 20 24 14 11 22 12
22 25 26 28 35 42 47 48 51 49 40 48 42 47 52 53 54 46 37 22 29 29 40 16 29 26 13 26 27 21 17 10 30 21 24 18 26 27
20 24 35 40 43 42 42 44 43 38 35 42 40 44 49 55 54 49 35 34 25 32 31 23 19 17 19 16 19 20 25 30 30 30 18 19 13 13
20 24 33 44 39 32 38 40 40 34 31 38 37 40 41 46 51 50 47 31 24 21 20 20 17 21 22 18 19 25 31 23 28 23 22 26 40 38
Wind_Direction_500mb
216 212 222 245 257 279 295 303 310 318 306 299 293 286 176 200 224 255 253 266 278 277 281 275 275 274 264 262 260 260 252 250 248 248 235 230 225 223
178 229 286 295 307 314 314 315 317 311 305 300 293 289 286 292 299 285 272 268 269 272 272 267 271 274 272 272 266 269 264 254 250 248 245 229 229 229
186 259 272 299 308 305 309 305 305 300 293 297 297 298 300 300 296 290 284 273 274 263 265 264 262 264 269 267 267 267 274 269 252 250 239 239 227 230
338 312 311 304 299 300 298 300 299 295 294 296 301 300 296 294 293 294 288 281 278 272 256 254 249 251 255 264 268 270 278 272 258 250 238 234 230 234
337 319 301 296 305 304 300 299 297 296 295 297 300 310 315 311 297 287 283 277 266 281 254 252 257 258 249 245 265 267 273 276 265 252 244 239 234 223
285 283 284 285 291 303 300 296 296 291 289 291 305 309 313 312 310 310 295 285 278 272 267 259 244 248 246 248 251 259 270 275 272 259 247 240 228 230
296 290 286 289 293 301 298 303 302 294 292 298 298 308 307 303 308 315 317 314 299 291 282 278 268 258 255 253 252 255 262 271 270 269 253 243 230 223
298 297 299 303 308 310 308 306 293 285 292 301 313 311 306 307 312 297 311 322 320 325 316 289 281 269 259 254 242 248 253 260 265 261 258 247 241 234
313 323 335 344 331 314 309 290 259 280 296 302 303 301 301 300 301 296 300 302 302 308 314 317 304 295 269 229 233 240 244 254 258 259 257 255 244 238
346 2 25 9 5 354 328 313 306 304 301 303 299 304 311 315 302 297 292 296 296 298 315 307 335 325 278 245 241 240 245 253 260 255 250 253 255 245
20 31 24 6 338 336 346 340 332 327 315 304 306 304 305 309 326 295 291 288 295 287 308 294 313 317 303 284 257 251 250 252 253 254 255 262 266 262
23 26 27 14 4 348 349 348 345 342 331 320 307 307 305 302 311 296 304 315 300 302 299 298 299 309 312 281 276 264 255 255 257 256 263 266 267 265
39 25 15 1 1 4 345 346 348 343 338 326 317 310 312 312 298 302 303 297 288 281 283 280 287 294 289 278 270 269 270 261 261 261 265 266 263 263
24 20 14 17 15 10 360 353 348 343 336 337 332 335 325 324 319 306 299 289 278 276 275 272 276 281 286 283 272 267 255 268 270 270 266 266 267 265
6 13 28 26 14 12 12 11 5 0 349 340 339 339 329 327 318 299 288 285 279 278 276 275 267 270 268 258 253 264 270 270 281 271 259 269 282 295
15 20 24 22 13 13 7 6 1 356 353 344 344 338 337 333 336 332 319 308 297 297 285 263 248 250 248 244 248 249 259 255 280 269 258 291 304 307
21 17 14 16 13 11 8 4 0 357 358 355 348 343 349 352 349 336 331 316 301 290 285 246 242 236 234 239 242 241 250 260 247 262 276 266 276 314
12 11 12 7 5 3 2 359 359 357 360 0 358 359 354 355 351 347 343 328 312 300 278 252 231 217 210 214 190 206 199 208 201 227 229 181 337 311
15 21 25 11 4 1 357 359 358 357 2 4 2 6 7 2 3 357 2 9 15 6 331 287 266 199 159 122 116 133 146 171 159 179 179 69 59 152
359 12 19 6 351 354 358 358 358 358 7 12 11 7 5 7 8 8 24 29 23 9 25 140 149 131 142 147 131 121 98 158 171 153 118 102 135 122
345 357 354 348 347 345 348 353 358 357 9 11 12 13 12 13 18 20 24 32 51 65 52 123 158 151 140 140 140 128 102 146 165 168 117 124 103 123
334 344 344 338 340 340 343 348 357 2 12 13 12 8 20 22 23 24 27 37 56 67 73 85 108 105 113 134 137 120 137 146 129 79 153 134 114 148
338 345 342 339 343 348 347 349 359 5 11 16 15 16 16 25 26 31 34 40 45 52 52 76 89 98 101 123 129 132 150 154 140 89 125 125 107 100
Wind_Speed_850mb
21 14 11 10 13 17 20 22 23 13 24 23 19 7 4 5 6 10 16 19 25 28 30 29 28 33 41 49 51 54 68 82 66 67 69 68 63 63
11 6 8 11 14 18 20 21 25 28 22 25 27 32 35 36 31 23 22 27 32 35 36 36 32 34 34 37 40 41 48 62 79 88 85 82 69 66
8 7 7 10 16 17 21 27 33 32 32 30 29 36 46 48 48 44 43 37 36 39 38 41 43 41 39 36 37 38 39 44 56 66 88 84 78 74
5 8 11 14 21 27 34 36 32 33 33 34 36 43 48 53 60 54 43 37 49 47 43 41 44 48 42 37 38 36 32 37 42 52 67 96 85 84
12 16 19 23 26 27 29 31 32 33 37 40 41 39 41 39 37 39 43 44 33 22 26 30 30 29 55 43 42 39 38 38 39 45 53 59 82 101
15 19 24 28 30 30 28 23 28 35 39 38 31 36 35 33 38 41 41 41 49 57 43 31 39 34 32 39 45 45 40 36 37 39 46 50 55 77
24 24 26 30 30 28 23 24 24 28 25 28 31 35 35 36 36 32 35 35 35 41 52 51 50 54 50 46 43 44 42 36 33 32 40 46 59 63
25 26 27 27 19 18 26 22 21 23 25 28 28 34 37 38 36 33 35 42 48 32 36 37 38 51 54 54 47 45 40 38 36 37 35 43 50 58
21 22 19 18 18 20 22 21 22 25 26 29 30 26 30 36 38 41 46 49 42 36 39 36 27 37 40 51 44 43 40 39 37 36 39 34 45 53
14 10 15 20 19 12 16 20 25 28 28 26 28 32 38 41 40 35 38 34 36 29 27 33 29 24 18 29 43 47 47 45 40 37 37 36 34 44
14 13 10 11 17 19 25 27 26 22 24 22 28 33 31 29 31 29 28 31 31 31 28 24 34 32 26 23 29 33 35 38 39 36 37 40 40 41
25 29 30 24 17 16 21 25 28 30 33 34 38 39 31 23 23 34 24 22 29 30 25 34 41 34 23 29 33 30 35 39 41 42 42 44 45 49
34 46 45 32 24 18 21 23 27 32 36 36 36 35 29 28 27 29 31 33 39 43 38 37 43 40 34 37 38 38 28 36 41 39 39 39 41 44
29 40 39 29 25 23 22 25 30 32 36 37 34 26 29 34 31 31 34 33 32 36 37 41 51 45 43 36 35 31 35 36 34 35 40 38 37 46
26 34 40 29 28 29 28 36 37 47 46 38 36 37 43 46 48 43 40 37 41 45 48 49 51 49 42 39 44 34 29 29 30 22 21 20 25 30
22 28 30 39 36 35 36 40 47 53 49 37 34 42 49 49 46 40 37 34 40 36 27 34 41 43 37 33 33 31 29 20 15 16 18 18 28 29
27 27 29 36 43 49 45 47 53 62 54 44 40 50 47 44 51 47 40 37 35 35 28 18 28 30 31 27 31 32 31 24 17 10 17 19 13 21
25 27 28 30 36 45 48 51 54 66 54 47 49 45 48 51 55 50 39 29 27 17 14 7 10 24 21 17 12 15 17 15 7 7 11 5 3 10
24 24 25 27 31 40 44 47 57 64 51 52 46 44 49 54 58 48 41 25 15 13 8 11 10 18 38 27 20 9 7 10 12 23 15 2 0 7
27 25 23 23 30 40 45 50 57 57 49 45 47 48 48 53 54 44 37 33 25 19 13 22 32 32 30 31 27 15 10 7 20 24 14 11 22 12
22 25 26 28 35 42 47 48 51 49 40 48 42 47 52 53 54 46 37 22 29 29 40 16 29 26 13 26 27 21 17 10 30 21 24 18 26 27
20 24 35 40 43 42 42 44 43 38 35 42 40 44 49 55 54 49 35 34 25 32 31 23 19 17 19 16 19 20 25 30 30 30 18 19 13 13
20 24 33 44 39 32 38 40 40 34 31 38 37 40 41 46 51 50 47 31 24 21 20 20 17 21 22 18 19 25 31 23 28 23 22 26 40 38
Wind_Direction_850mb
216 212 222 245 257 279 295 303 310 318 306 299 293 286 176 200 224 255 253 266 278 277 281 275 275 274 264 262 260 260 252 250 248 248 235 230 225 223
178 229 286 295 307 314 314 315 317 311 305 300 293 289 286 292 299 285 272 268 269 272 272 267 271 274 272 272 266 269 264 254 250 248 245 229 229 229
186 259 272 299 308 305 309 305 305 300 293 297 297 298 300 300 296 290 284 273 274 263 265 264 262 264 269 267 267 267 274 269 252 250 239 239 227 230
338 312 311 304 299 300 298 300 299 295 294 296 301 300 296 294 293 294 288 281 278 272 256 254 249 251 255 264 268 270 278 272 258 250 238 234 230 234
337 319 301 296 305 304 300 299 297 296 295 297 300 310 315 311 297 287 283 277 266 281 254 252 257 258 249 245 265 267 273 276 265 252 244 239 234 223
285 283 284 285 291 303 300 296 296 291 289 291 305 309 313 312 310 310 295 285 278 272 267 259 244 248 246 248 251 259 270 275 272 259 247 240 228 230
296 290 286 289 293 301 298 303 302 294 292 298 298 308 307 303 308 315 317 314 299 291 282 278 268 258 255 253 252 255 262 271 270 269 253 243 230 223
298 297 299 303 308 310 308 306 293 285 292 301 313 311 306 307 312 297 311 322 320 325 316 289 281 269 259 254 242 248 253 260 265 261 258 247 241 234
313 323 335 344 331 314 309 290 259 280 296 302 303 301 301 300 301 296 300 302 302 308 314 317 304 295 269 229 233 240 244 254 258 259 257 255 244 238
346 2 25 9 5 354 328 313 306 304 301 303 299 304 311 315 302 297 292 296 296 298 315 307 335 325 278 245 241 240 245 253 260 255 250 253 255 245
20 31 24 6 338 336 346 340 332 327 315 304 306 304 305 309 326 295 291 288 295 287 308 294 313 317 303 284 257 251 250 252 253 254 255 262 266 262
23 26 27 14 4 348 349 348 345 342 331 320 307 307 305 302 311 296 304 315 300 302 299 298 299 309 312 281 276 264 255 255 257 256 263 266 267 265
39 25 15 1 1 4 345 346 348 343 338 326 317 310 312 312 298 302 303 297 288 281 283 280 287 294 289 278 270 269 270 261 261 261 265 266 263 263
24 20 14 17 15 10 360 353 348 343 336 337 332 335 325 324 319 306 299 289 278 276 275 272 276 281 286 283 272 267 255 268 270 270 266 266 267 265
6 13 28 26 14 12 12 11 5 0 349 340 339 339 329 327 318 299 288 285 279 278 276 275 267 270 268 258 253 264 270 270 281 271 259 269 282 295
15 20 24 22 13 13 7 6 1 356 353 344 344 338 337 333 336 332 319 308 297 297 285 263 248 250 248 244 248 249 259 255 280 269 258 291 304 307
21 17 14 16 13 11 8 4 0 357 358 355 348 343 349 352 349 336 331 316 301 290 285 246 242 236 234 239 242 241 250 260 247 262 276 266 276 314
12 11 12 7 5 3 2 359 359 357 360 0 358 359 354 355 351 347 343 328 312 300 278 252 231 217 210 214 190 206 199 208 201 227 229 181 337 311
15 21 25 11 4 1 357 359 358 357 2 4 2 6 7 2 3 357 2 9 15 6 331 287 266 199 159 122 116 133 146 171 159 179 179 69 59 152
359 12 19 6 351 354 358 358 358 358 7 12 11 7 5 7 8 8 24 29 23 9 25 140 149 131 142 147 131 121 98 158 171 153 118 102 135 122
345 357 354 348 347 345 348 353 358 357 9 11 12 13 12 13 18 20 24 32 51 65 52 123 158 151 140 140 140 128 102 146 165 168 117 124 103 123
334 344 344 338 340 340 343 348 357 2 12 13 12 8 20 22 23 24 27 37 56 67 73 85 108 105 113 134 137 120 137 146 129 79 153 134 114 148
338 345 342 339 343 348 347 349 359 5 11 16 15 16 16 25 26 31 34 40 45 52 52 76 89 98 101 123 129 132 150 154 140 89 125 125 107 100